Date,TemperatureHighF,TemperatureAvgF,TemperatureLowF,DewpointHighF,DewpointAvgF,DewpointLowF,HumidityHigh,HumidityAvg,HumidityLow,PressureMaxIn,PressureMinIn,WindSpeedMaxMPH,WindSpeedAvgMPH,GustSpeedMaxMPH,PrecipitationSumIn
2013-1-1,15,6,-12,8,0,-17,84,77,69,30.86,30.72,2,0,4,0.00
2013-1-2,7,3,1,2,-1,-5,83,82,73,30.90,30.87,0,0,1,0.00
2013-1-3,14,-3,-22,2,-11,-28,92,70,53,31.14,31.00,2,0,3,0.00
2013-1-4,5,-8,-23,-4,-14,-28,92,76,64,31.15,31.01,1,0,1,0.00
2013-1-5,10,0,-11,0,-7,-17,82,72,61,31.19,31.05,2,0,3,0.00
2013-1-6,12,2,-11,4,-5,-16,81,76,69,30.90,30.69,0,0,4,0.00
2013-1-7,25,14,6,22,10,1,92,82,75,30.68,30.51,3,1,4,0.00
2013-1-8,30,28,27,25,23,22,84,81,74,30.38,30.31,12,4,18,0.00
2013-1-9,42,34,29,26,24,22,85,66,48,30.38,29.97,7,2,13,0.06
2013-1-11,16,14,12,11,6,0,84,70,55,29.91,29.70,3,1,6,0.00
2013-1-12,12,0,-15,0,-8,-20,83,69,54,30.50,30.39,2,0,4,0.00
2013-1-13,5,-3,-13,-6,-11,-18,81,69,59,30.68,30.61,2,1,4,0.00
2013-1-14,0,-17,-32,-9,-22,-39,79,74,66,30.97,30.89,2,0,2,0.00
2013-1-15,11,6,0,4,0,-5,81,76,69,31.01,30.94,2,0,3,0.00
2013-1-16,3,3,3,-1,-1,-1,84,84,84,31.06,31.06,0,0,0,0.00
2013-1-17,18,6,-6,6,-2,-11,81,70,55,31.27,31.12,2,0,3,0.00
2013-1-18,20,0,-16,8,-7,-21,84,75,59,31.11,30.91,2,0,5,0.00
2013-1-19,18,12,-4,8,4,-8,83,69,61,31.10,30.94,2,1,3,0.00
2013-1-22,22,0,-17,8,-6,-22,84,75,55,30.99,30.88,0,0,2,0.00
2013-1-23,18,6,-13,8,-1,-18,84,74,64,30.95,30.80,1,0,1,0.00
2013-1-24,37,34,31,32,30,28,93,85,78,30.61,30.47,5,2,7,0.01
2013-1-25,38,38,37,28,28,27,68,66,64,30.20,30.17,2,1,4,0.02
2013-1-26,40,37,32,34,33,31,93,86,75,30.01,29.84,3,1,5,0.03
2013-1-27,33,29,24,31,26,18,94,89,77,29.80,29.67,1,0,2,0.14
2013-2-1,36,34,31,26,24,22,80,67,56,30.26,30.19,6,3,14,0.01
2013-2-4,37,28,7,24,19,4,90,68,57,30.47,30.33,5,2,10,0.02
2013-2-5,42,40,33,25,22,19,72,48,40,30.13,29.94,6,4,11,0.00
2013-2-6,38,34,30,22,20,17,65,56,50,30.19,30.06,3,2,6,0.00
2013-2-7,28,20,11,13,9,5,84,64,53,30.44,30.26,1,0,4,0.00
2013-2-8,30,26,20,19,12,8,86,57,46,30.20,30.03,1,0,2,0.00
2013-2-9,37,33,24,18,16,15,74,51,40,29.82,29.76,3,2,6,0.01
2013-2-10,24,22,17,11,10,-1,76,59,36,30.11,29.97,3,2,4,0.02
2013-2-11,17,14,6,1,0,-6,63,52,47,30.57,30.50,1,0,5,0.00
2013-2-12,22,15,3,14,8,-1,82,72,64,30.77,30.61,1,0,5,0.07
2013-2-13,30,28,24,23,22,19,84,77,73,30.40,30.27,4,2,6,0.02
2013-2-14,24,24,24,21,21,21,88,87,86,30.26,30.26,0,0,6,0.00
2013-2-19,30,28,23,13,12,11,66,51,48,30.12,30.08,1,0,1,0.00
2013-2-20,32,24,1,18,12,-2,87,61,49,30.06,29.90,1,0,3,0.00
2013-2-21,34,28,11,18,12,4,89,52,40,30.08,29.97,2,0,4,0.03
2013-2-22,28,25,21,17,14,10,80,63,47,30.25,30.19,4,2,7,0.03
2013-2-23,30,25,20,23,18,13,89,77,56,30.00,29.78,5,1,6,0.10
2013-2-24,33,14,-5,12,2,-8,85,64,42,30.39,30.36,0,0,0,0.00
2013-2-25,25,21,15,15,8,3,66,57,54,30.48,30.30,3,1,4,0.00
2013-2-26,31,21,1,11,7,-2,89,58,38,30.43,30.37,3,0,4,0.01
2013-3-5,26,24,22,9,7,6,50,48,47,30.37,30.31,1,1,2,0.00
2013-3-6,29,27,24,24,14,13,84,60,57,30.05,29.96,0,0,3,0.00
2013-3-7,38,35,31,25,22,19,78,60,47,30.03,30.01,1,0,3,0.02
2013-3-8,42,31,30,30,9,-100,84,62,62,29.90,29.78,1,-146,2,0.09
2013-3-9,43,36,33,18,15,13,48,43,33,30.13,29.95,3,2,6,0.01
2013-3-13,52,50,39,31,28,26,62,43,37,30.22,30.19,3,1,4,0.00
2013-3-14,56,34,42,31,-14,-100,57,30,37,30.22,30.02,1,-333,3,0.00
2013-3-15,54,35,52,25,-17,-100,34,22,31,29.92,29.86,3,-332,6,0.00
2013-3-18,30,21,28,20,-16,-100,70,42,47,30.07,29.99,4,-276,6,0.05
2013-3-22,25,24,23,16,15,13,74,69,64,29.97,29.96,2,1,3,0.02
2013-3-23,27,25,24,8,5,1,49,42,33,30.30,30.27,4,2,6,0.00
2013-3-25,34,26,18,10,7,4,54,43,33,30.42,30.29,3,1,4,0.00
2013-3-26,-200,0,200,-100,-100,-100,0,0,100,30.03,30.03,0,-999,0,0.00
2013-3-27,46,25,40,29,-26,-100,63,31,51,30.05,29.97,1,-428,2,0.00
2013-3-28,52,37,28,30,25,23,83,63,42,30.25,30.11,1,0,3,0.00
2013-3-29,48,43,34,35,31,27,76,63,50,30.22,30.15,3,1,4,0.01
2013-3-30,31,31,31,22,22,22,70,70,70,30.22,30.22,0,0,6,0.00
2013-4-1,59,46,32,31,27,24,77,51,27,30.10,29.93,1,0,4,0.00
2013-4-2,58,45,35,28,27,22,69,52,28,30.06,29.96,1,0,3,0.00
2013-4-5,36,35,34,33,33,31,93,92,88,29.88,29.81,3,2,6,0.35
2013-4-6,44,40,34,36,34,32,90,82,68,30.04,29.96,3,2,5,0.03
2013-4-7,40,37,35,36,34,30,94,89,79,29.72,29.67,5,3,5,0.23
2013-4-8,40,35,30,33,30,26,89,85,73,29.67,29.55,8,3,14,0.11
2013-4-9,34,30,26,17,12,8,53,47,44,30.14,30.11,7,5,11,0.00
2013-4-10,40,32,24,18,16,14,66,51,38,30.29,30.19,2,1,7,0.00
2013-4-11,50,50,49,27,27,26,42,41,39,29.88,29.87,4,4,6,0.04
2013-4-12,40,37,27,25,22,21,92,55,46,29.99,29.91,2,1,14,0.00
2013-4-13,42,35,32,34,31,23,94,87,54,29.54,29.39,4,3,10,0.56
2013-4-14,36,26,23,12,10,9,59,52,32,29.84,29.81,4,2,5,0.04
2013-4-15,36,32,24,21,17,15,87,56,47,29.92,29.83,2,1,4,0.00
2013-4-16,33,28,24,20,17,14,70,61,51,30.04,29.95,5,3,11,0.08
2013-4-17,27,27,26,14,11,8,58,51,46,30.27,30.21,4,2,10,0.00
2013-4-18,43,30,9,16,11,4,81,47,32,30.43,30.34,3,1,11,0.00
2013-4-19,40,38,37,32,31,31,81,76,71,30.00,29.98,3,3,3,0.00
2013-4-20,46,39,34,37,33,30,92,82,63,30.02,29.98,3,1,6,0.08
2013-4-21,44,36,32,31,29,23,83,74,43,30.12,29.91,4,2,6,0.24
2013-4-22,36,31,28,29,25,23,92,79,63,30.16,29.89,5,2,8,0.04
2013-4-23,28,21,9,14,11,4,82,65,55,30.42,30.42,2,1,6,0.02
2013-4-24,41,33,22,21,19,14,74,57,34,30.39,30.20,2,1,4,0.00
2013-4-25,55,55,55,16,16,16,21,21,21,30.00,30.00,4,4,4,0.00
2013-4-26,46,38,20,25,22,16,84,54,38,30.27,30.23,1,0,12,0.00
2013-4-27,66,52,38,31,28,25,60,40,23,30.28,30.06,3,1,10,0.00
2013-4-28,60,56,52,32,28,24,46,34,28,29.84,29.78,6,3,11,0.00
2013-4-29,56,52,41,32,30,22,51,44,35,29.77,29.56,6,4,9,0.00
2013-4-30,42,37,36,22,19,17,58,49,36,29.81,29.70,4,1,15,0.00
2013-5-1,32,30,29,25,24,23,84,77,70,30.40,30.33,0,0,0,0.04
2013-5-6,68,59,55,41,38,35,59,47,30,29.94,29.83,2,1,6,0.00
2013-5-7,51,47,34,41,38,32,94,72,65,29.94,29.86,0,0,0,0.03
2013-5-8,64,61,33,37,35,31,94,40,34,29.98,29.95,3,2,3,0.00
2013-5-9,69,67,66,36,34,33,31,30,28,30.04,30.01,2,1,7,0.00
2013-5-11,54,50,46,35,34,33,59,53,48,30.29,30.25,2,0,2,0.00
2013-5-12,77,77,77,39,39,39,25,25,25,29.98,29.98,2,2,3,0.00
2013-5-16,62,60,54,45,42,37,65,52,41,29.63,29.61,6,2,6,0.11
2013-5-17,44,44,44,43,43,43,94,94,94,29.75,29.75,0,0,12,0.00
2013-5-25,50,39,32,30,29,28,86,68,42,29.95,29.91,0,0,1,0.00
2013-5-26,68,47,35,40,35,32,90,69,31,29.88,29.76,1,0,1,0.00
2013-5-27,60,48,40,40,37,32,94,68,40,29.81,29.73,4,1,5,0.02
2013-5-28,54,51,48,42,40,38,78,67,59,29.62,29.60,3,0,4,0.02
2013-5-29,57,50,48,41,39,36,78,67,47,29.64,29.61,2,0,11,0.00
2013-5-30,51,45,40,40,38,35,91,75,60,29.87,29.75,2,0,5,0.13
2013-5-31,54,48,42,36,32,28,81,55,38,30.10,30.02,2,0,5,0.00
2013-6-1,67,49,36,40,35,33,90,62,29,30.26,29.99,1,0,2,0.00
2013-6-2,74,73,72,39,38,36,29,28,27,29.67,29.58,2,1,2,0.00
2013-6-5,59,58,56,41,39,38,55,50,45,30.10,30.08,1,0,1,0.00
2013-6-6,60,57,54,43,41,39,59,54,50,30.02,30.00,0,0,3,0.00
2013-6-7,76,62,47,47,44,41,82,51,29,29.92,29.69,1,0,2,0.00
2013-6-8,66,61,56,44,42,38,62,49,36,29.70,29.61,0,0,0,0.00
2013-6-9,74,74,74,38,38,37,27,26,26,29.66,29.66,1,1,1,0.00
2013-6-10,86,69,52,49,46,43,71,50,28,29.61,29.49,1,0,6,0.00
2013-6-11,72,69,43,46,43,37,86,39,32,29.74,29.62,1,0,10,0.00
2013-6-12,53,50,45,50,47,42,93,90,86,29.96,29.87,0,0,10,0.05
2013-6-13,43,43,43,41,41,40,91,91,91,29.89,29.89,0,0,0,0.00
2013-6-15,70,48,42,38,33,30,69,57,27,30.14,29.92,0,0,1,0.00
2013-6-16,79,70,54,44,43,40,60,39,29,30.03,29.90,0,0,1,0.00
2013-6-17,77,75,73,47,43,38,39,31,25,29.92,29.88,1,0,1,0.00
2013-6-18,72,67,61,49,46,44,54,48,41,29.81,29.75,0,0,2,0.00
2013-6-19,76,66,48,49,42,30,52,43,26,29.72,29.38,2,0,11,0.00
2013-6-20,65,56,34,32,28,24,83,38,23,29.89,29.81,2,1,4,0.00
2013-6-21,64,51,36,43,37,33,89,60,39,29.94,29.87,0,0,2,0.00
2013-6-22,63,58,43,42,38,34,81,48,38,29.93,29.89,1,0,3,0.00
2013-6-23,71,64,54,42,37,31,53,38,25,29.93,29.79,2,0,3,0.00
2013-6-24,68,49,38,46,40,36,94,76,45,29.66,29.59,0,0,0,0.00
2013-6-28,86,78,56,50,46,41,62,35,23,29.95,29.92,0,0,0,0.00
2013-6-29,87,78,68,61,52,46,55,42,32,29.95,29.83,2,0,5,0.00
2013-7-1,89,78,65,61,55,48,63,46,25,30.00,29.85,0,0,2,0.00
2013-7-3,88,79,51,58,55,48,89,46,31,29.82,29.61,0,0,2,0.00
2013-7-4,79,76,65,60,57,53,67,52,45,29.68,29.58,0,0,2,0.00
2013-7-5,79,74,69,59,55,50,66,51,39,29.64,29.53,1,0,3,0.00
2013-11-6,35,34,32,28,27,26,79,77,73,30.50,30.47,5,2,0,0.00
2013-11-7,39,35,33,35,31,27,94,86,74,30.47,30.20,5,2,0,0.00
2013-11-8,40,40,40,19,13,9,44,33,28,30.04,29.97,34,8,34,0.00
2013-11-13,39,38,36,36,34,33,89,86,81,30.31,30.27,15,1,15,0.11
2013-12-4,16,1,-6,1,-7,-12,83,70,47,30.47,29.98,2,0,0,0.00
2013-12-5,6,-6,-11,-4,-12,-16,83,77,65,30.54,30.47,1,0,0,0.00
2013-12-8,5,-2,-14,-4,-10,-19,78,69,64,30.63,30.42,2,0,0,0.00
2013-12-9,8,-4,-19,2,-10,-24,80,73,62,30.95,30.63,9,2,0,0.00
2013-12-10,16,13,8,8,6,2,85,74,68,30.88,30.55,9,4,14,0.00
2013-12-11,19,2,-5,9,-3,-10,84,78,60,31.00,30.67,1,0,4,0.02
2013-12-12,23,0,-8,9,-6,-13,92,76,54,31.03,30.70,1,0,3,0.01
2013-12-13,18,7,-8,11,2,-12,92,79,70,30.81,30.66,2,0,5,0.00
2013-12-14,31,19,8,23,14,4,88,81,67,30.81,30.67,8,1,13,0.01
2013-12-15,35,29,20,23,20,15,81,68,60,30.59,30.45,7,2,15,0.02
2013-12-16,36,21,9,21,13,6,92,74,53,30.76,30.63,2,0,3,0.02
2013-12-17,34,13,0,20,7,-4,88,79,56,30.86,30.49,8,1,13,0.00
2013-12-18,44,35,27,23,20,17,67,54,39,30.41,29.75,8,4,8,0.01
2013-12-19,34,26,10,29,17,4,90,70,54,29.93,29.70,1,0,6,0.03
2013-12-20,24,16,5,13,9,0,88,73,60,30.19,30.05,8,2,12,0.00
2013-12-21,24,21,17,20,17,13,89,84,80,30.17,29.97,1,0,3,0.04
2013-12-22,30,27,22,19,18,15,75,68,63,30.35,30.27,9,5,15,0.00
2013-12-23,34,32,28,30,28,24,92,85,77,30.40,30.28,9,3,12,0.01
2013-12-24,32,24,14,16,12,9,79,61,48,30.60,30.42,6,2,11,0.01
2013-12-25,14,0,-8,9,-4,-13,86,81,67,30.93,30.59,2,0,9,0.00
2013-12-26,26,13,1,14,6,-4,92,73,54,30.99,30.86,2,0,3,0.00
2013-12-27,27,6,-7,15,0,-12,92,78,58,31.00,30.64,1,0,2,0.00
2013-12-28,38,14,2,23,9,-2,87,78,53,30.64,30.46,2,0,4,0.00
2013-12-29,25,15,-7,15,8,-11,86,73,59,30.69,30.53,10,2,13,0.00
2013-12-30,33,30,25,19,18,16,71,61,56,30.56,30.40,7,3,13,0.01
2013-12-31,35,32,30,27,26,24,82,78,71,30.29,30.14,11,5,16,0.00
2014-1-1,40,27,5,22,16,1,84,64,42,30.55,30.37,6,1,10,0.00
2014-1-2,29,19,1,17,11,-3,85,71,55,30.76,30.63,1,0,4,0.01